Showing default

KUIPER-00111, 65149

Orbit data source: Space-Track

KUIPER-00111, 65149 is a payload satellite owned by Kuiper Systems (US) in LEO that was launched on Mon, 11 Aug 2025 UTC via an FALCON 9 launch vehicle from the Air Force Eastern Test Range (AFETR). Payload-class satellites include a variety of spacecraft equipped with specific instruments for various scientific and technological missions. These include communications satellites like Starlink; space stations such as the ISS; scientific satellites like the Hubble; Earth observation satellites from companies like Planet Labs, Umbra, and HawkEye 360; GPS; miniature CubeSats for education and research; and military/defense satellites.

Loading next visibility...
Identifier
65149, 2025-171T
Orbit
LEO
Country
Flag of USUS
Related business
Manufacturer
Kuiper Systems
Mission
Operational Commercial Communications
Bus & Motor
KUIPER, Unknown motor
Mass
~490 kg wet, ~490 kg dry
Launch date (UTC)
2025-08-11 (10 months ago)
Launch vehicle
FALCON 9
Launch site
Air Force Eastern Test Range (AFETR)
Object type
Payload
Rocket body
Debris
Shape & HBR
Box + 2 Pan, 3.4 m
Radar Cross Section
2.326 m², Large (>1 m²)

Expand to show TLE details & history
Last TLE update: 11 hours ago

TLE from 11 hours ago
0 KUIPER-00111
1 65149U 25171T   26171.44161293  .00003141  00000-0  44097-3 0  9994
2 65149  51.8975  78.6495 0000846 105.6398 254.4658 14.79920704 47896
Epoch: 2026-06-20T10:35Z
TLE epoch observation values (Epoch: 2026-06-20T10:35:55.357Z)
Latitude
0.00002°
Longitude
11.01267°
Altitude
630.48 km
Speed
7.544 km/s
True Right ascension
05h 14m 35s
True Declination
0° 00' 00"
Sunlit
Object was in daylight at epoch
Visualization orbit readout
Latitude
Unknown
Longitude
Unknown
Altitude
Unknown
Speed
Unknown
Apparent Right ascension
Unknown
Apparent Declination
Unknown
Sunlit
N/A
Visualization observer readout
Local Sidereal Time
08:32:57
Azimuth
Unknown
Elevation
Unknown
Doppler factor
Unknown
Orbital elements
Apogee altitude
630.619 km
Perigee altitude
629.433 km
Semi-major axis
7,008.163 km
Eccentricity
0.00008
Inclination
51.8975°
RAAN
78.6495°
Arg. of periapsis
105.6398°
True anomaly
254.45646°
Mean anomaly
254.4658°
Eccentric anomaly
254.46113°
Mean motion
3.69945 °/min
Orbital period
97.31 mins
BSTAR
0.00044097
Loading maneuver chart data...
Computing Atmospheric mass density...
Loading historical data...
Loading historical data...
Loading historical data...
Loading historical data...
Loading historical data...
Loading historical data...
Loading historical data...

Documentation

Showing up to 5 results
|